"Time","Value","Approval","myLocation"
"2023-05-07 00:00",17.6909507934933,"Approved","OW311"
"2023-05-07 01:00",17.6909520772428,"Approved","OW311"
"2023-05-07 02:00",17.6899533609923,"Approved","OW311"
"2023-05-07 03:00",17.6909546447418,"Approved","OW311"
"2023-05-07 04:00",17.6899559284913,"Approved","OW311"
"2023-05-07 05:00",17.6899572122407,"Approved","OW311"
"2023-05-07 06:00",17.6899584959902,"Approved","OW311"
"2023-05-07 07:00",17.6899597797397,"Approved","OW311"
"2023-05-07 08:00",17.6899610634892,"Approved","OW311"
"2023-05-07 09:00",17.6899623472387,"Approved","OW311"
"2023-05-07 10:00",17.6899636309882,"Approved","OW311"
"2023-05-07 11:00",17.6909649147376,"Approved","OW311"
"2023-05-07 12:00",17.6909661984871,"Approved","OW311"
"2023-05-07 13:00",17.6919674822366,"Approved","OW311"
"2023-05-07 14:00",17.6919687659861,"Approved","OW311"
"2023-05-07 15:00",17.6919700497356,"Approved","OW311"
"2023-05-07 16:00",17.691971333485,"Approved","OW311"
"2023-05-07 17:00",17.6919726172345,"Approved","OW311"
"2023-05-07 18:00",17.690973900984,"Approved","OW311"
"2023-05-07 19:00",17.6909751847335,"Approved","OW311"
"2023-05-07 20:00",17.689976468483,"Approved","OW311"
"2023-05-07 21:00",17.6899777522325,"Approved","OW311"
"2023-05-07 22:00",17.6899790359819,"Approved","OW311"
"2023-05-07 23:00",17.6889803197314,"Approved","OW311"
"2023-05-08 00:00",17.6899816034809,"Approved","OW311"
"2023-05-08 01:00",17.6889828872304,"Approved","OW311"
"2023-05-08 02:00",17.6889841709799,"Approved","OW311"
"2023-05-08 03:00",17.6889854547294,"Approved","OW311"
"2023-05-08 04:00",17.6889867384788,"Approved","OW311"
"2023-05-08 05:00",17.6889880222283,"Approved","OW311"
"2023-05-08 06:00",17.6889893059778,"Approved","OW311"
"2023-05-08 07:00",17.6889905897273,"Approved","OW311"
"2023-05-08 08:00",17.6889918734768,"Approved","OW311"
"2023-05-08 09:00",17.6889931572262,"Approved","OW311"
"2023-05-08 10:00",17.6889944409757,"Approved","OW311"
"2023-05-08 11:00",17.6889957247252,"Approved","OW311"
"2023-05-08 12:00",17.6889970084747,"Approved","OW311"
"2023-05-08 13:00",17.6899982922242,"Approved","OW311"
"2023-05-08 14:00",17.6899995759737,"Approved","OW311"
"2023-05-08 15:00",17.6900008597231,"Approved","OW311"
"2023-05-08 16:00",17.6900021434726,"Approved","OW311"
"2023-05-08 17:00",17.6900034272221,"Approved","OW311"
"2023-05-08 18:00",17.6900047109716,"Approved","OW311"
"2023-05-08 19:00",17.6890059947211,"Approved","OW311"
"2023-05-08 20:00",17.6890072784705,"Approved","OW311"
"2023-05-08 21:00",17.68800856222,"Approved","OW311"
"2023-05-08 22:00",17.6880098459695,"Approved","OW311"
"2023-05-08 23:00",17.687011129719,"Approved","OW311"
"2023-05-09 00:00",17.6880124134685,"Approved","OW311"
"2023-05-09 01:00",17.687013697218,"Approved","OW311"
"2023-05-09 02:00",17.6870149809674,"Approved","OW311"
"2023-05-09 03:00",17.6870162647169,"Approved","OW311"
"2023-05-09 04:00",17.6870175484664,"Approved","OW311"
"2023-05-09 05:00",17.6870188322159,"Approved","OW311"
"2023-05-09 06:00",17.6870201159654,"Approved","OW311"
"2023-05-09 07:00",17.6870213997149,"Approved","OW311"
"2023-05-09 08:00",17.6880226834643,"Approved","OW311"
"2023-05-09 09:00",17.6880239672138,"Approved","OW311"
"2023-05-09 10:00",17.6880252509633,"Approved","OW311"
"2023-05-09 11:00",17.6880265347128,"Approved","OW311"
"2023-05-09 12:00",17.6890278184623,"Approved","OW311"
"2023-05-09 13:00",17.6890291022117,"Approved","OW311"
"2023-05-09 14:00",17.6890303859612,"Approved","OW311"
"2023-05-09 15:00",17.6900316697107,"Approved","OW311"
"2023-05-09 16:00",17.6900329534602,"Approved","OW311"
"2023-05-09 17:00",17.6900342372097,"Approved","OW311"
"2023-05-09 18:00",17.6900355209592,"Approved","OW311"
"2023-05-09 19:00",17.6900368047086,"Approved","OW311"
"2023-05-09 20:00",17.6900380884581,"Approved","OW311"
"2023-05-09 21:00",17.6890393722076,"Approved","OW311"
"2023-05-09 22:00",17.6890406559571,"Approved","OW311"
"2023-05-09 23:00",17.6890419397066,"Approved","OW311"
"2023-05-10 00:00",17.689043223456,"Approved","OW311"
"2023-05-10 01:00",17.6880445072055,"Approved","OW311"
"2023-05-10 02:00",17.689045790955,"Approved","OW311"
"2023-05-10 03:00",17.6890470747045,"Approved","OW311"
"2023-05-10 04:00",17.688048358454,"Approved","OW311"
"2023-05-10 05:00",17.6880496422035,"Approved","OW311"
"2023-05-10 06:00",17.6880509259529,"Approved","OW311"
"2023-05-10 07:00",17.6890522097024,"Approved","OW311"
"2023-05-10 08:00",17.6890534934519,"Approved","OW311"
"2023-05-10 09:00",17.6890547772014,"Approved","OW311"
"2023-05-10 10:00",17.6890560609509,"Approved","OW311"
"2023-05-10 11:00",17.6890573447004,"Approved","OW311"
"2023-05-10 12:00",17.6900586284498,"Approved","OW311"
"2023-05-10 13:00",17.6890599121993,"Approved","OW311"
"2023-05-10 14:00",17.6900611959488,"Approved","OW311"
"2023-05-10 15:00",17.6910624796983,"Approved","OW311"
"2023-05-10 16:00",17.6910637634478,"Approved","OW311"
"2023-05-10 17:00",17.6910650471972,"Approved","OW311"
"2023-05-10 18:00",17.6910663309467,"Approved","OW311"
"2023-05-10 19:00",17.6910676146962,"Approved","OW311"
"2023-05-10 20:00",17.6910688984457,"Approved","OW311"
"2023-05-10 21:00",17.6910701821952,"Approved","OW311"
"2023-05-10 22:00",17.6910714659447,"Approved","OW311"
"2023-05-10 23:00",17.6900727496941,"Approved","OW311"
"2023-05-11 00:00",17.6900740334436,"Approved","OW311"
"2023-05-11 01:00",17.6900753171931,"Approved","OW311"
"2023-05-11 02:00",17.6900766009426,"Approved","OW311"
"2023-05-11 03:00",17.6900778846921,"Approved","OW311"
"2023-05-11 04:00",17.6900791684415,"Approved","OW311"
"2023-05-11 05:00",17.690080452191,"Approved","OW311"
"2023-05-11 06:00",17.6900817359405,"Approved","OW311"
"2023-05-11 07:00",17.69008301969,"Approved","OW311"
"2023-05-11 08:00",17.6910843034395,"Approved","OW311"
"2023-05-11 09:00",17.691085587189,"Approved","OW311"
"2023-05-11 10:00",17.6910868709384,"Approved","OW311"
"2023-05-11 11:00",17.6920881546879,"Approved","OW311"
"2023-05-11 12:00",17.6920894384374,"Approved","OW311"
"2023-05-11 13:00",17.6920907221869,"Approved","OW311"
"2023-05-11 14:00",17.6920920059364,"Approved","OW311"
"2023-05-11 15:00",17.6920932896859,"Approved","OW311"
"2023-05-11 16:00",17.6930945734353,"Approved","OW311"
"2023-05-11 17:00",17.6930958571848,"Approved","OW311"
"2023-05-11 18:00",17.6930971409343,"Approved","OW311"
"2023-05-11 19:00",17.6930984246838,"Approved","OW311"
"2023-05-11 20:00",17.6930997084333,"Approved","OW311"
"2023-05-11 21:00",17.6941009921827,"Approved","OW311"
"2023-05-11 22:00",17.6941022759322,"Approved","OW311"
"2023-05-11 23:00",17.6941035596817,"Approved","OW311"
"2023-05-12 00:00",17.6941048434312,"Approved","OW311"
"2023-05-12 01:00",17.6941061271807,"Approved","OW311"
"2023-05-12 02:00",17.6941074109302,"Approved","OW311"
"2023-05-12 03:00",17.6941086946796,"Approved","OW311"
"2023-05-12 04:00",17.6941099784291,"Approved","OW311"
"2023-05-12 05:00",17.6941112621786,"Approved","OW311"
"2023-05-12 06:00",17.6951125459281,"Approved","OW311"
"2023-05-12 07:00",17.6951138296776,"Approved","OW311"
"2023-05-12 08:00",17.696115113427,"Approved","OW311"
"2023-05-12 09:00",17.6961163971765,"Approved","OW311"
"2023-05-12 10:00",17.696117680926,"Approved","OW311"
"2023-05-12 11:00",17.6971189646755,"Approved","OW311"
"2023-05-12 12:00",17.697120248425,"Approved","OW311"
"2023-05-12 13:00",17.6981215321745,"Approved","OW311"
"2023-05-12 14:00",17.6981228159239,"Approved","OW311"
"2023-05-12 15:00",17.6981240996734,"Approved","OW311"
"2023-05-12 16:00",17.6981253834229,"Approved","OW311"
"2023-05-12 17:00",17.6991266671724,"Approved","OW311"
"2023-05-12 18:00",17.6991279509219,"Approved","OW311"
"2023-05-12 19:00",17.6991292346714,"Approved","OW311"
"2023-05-12 20:00",17.7001305184208,"Approved","OW311"
"2023-05-12 21:00",17.7001318021703,"Approved","OW311"
"2023-05-12 22:00",17.7001330859198,"Approved","OW311"
"2023-05-12 23:00",17.7001343696693,"Approved","OW311"
"2023-05-13 00:00",17.7001356534188,"Approved","OW311"
"2023-05-13 01:00",17.7011369371682,"Approved","OW311"
"2023-05-13 02:00",17.7011382209177,"Approved","OW311"
"2023-05-13 03:00",17.7011395046672,"Approved","OW311"
"2023-05-13 04:00",17.7011407884167,"Approved","OW311"
"2023-05-13 05:00",17.7011420721662,"Approved","OW311"
"2023-05-13 06:00",17.7021433559157,"Approved","OW311"
"2023-05-13 07:00",17.7021446396651,"Approved","OW311"
"2023-05-13 08:00",17.7031459234146,"Approved","OW311"
"2023-05-13 09:00",17.7031472071641,"Approved","OW311"
"2023-05-13 10:00",17.7031484909136,"Approved","OW311"
"2023-05-13 11:00",17.7041497746631,"Approved","OW311"
"2023-05-13 12:00",17.7051510584125,"Approved","OW311"
"2023-05-13 13:00",17.705152342162,"Approved","OW311"
"2023-05-13 14:00",17.7051536259115,"Approved","OW311"
"2023-05-13 15:00",17.705154909661,"Approved","OW311"
"2023-05-13 16:00",17.7061561934105,"Approved","OW311"
"2023-05-13 17:00",17.70615747716,"Approved","OW311"
"2023-05-13 18:00",17.7061587609094,"Approved","OW311"
"2023-05-13 19:00",17.7061600446589,"Approved","OW311"
"2023-05-13 20:00",17.7061613284084,"Approved","OW311"
"2023-05-13 21:00",17.7071626121579,"Approved","OW311"
"2023-05-13 22:00",17.7071638959074,"Approved","OW311"
"2023-05-13 23:00",17.7071651796569,"Approved","OW311"
"2023-05-14 00:00",17.7071664634063,"Approved","OW311"
"2023-05-14 01:00",17.7071677471558,"Approved","OW311"
"2023-05-14 02:00",17.7071690309053,"Approved","OW311"
"2023-05-14 03:00",17.7071703146548,"Approved","OW311"
"2023-05-14 04:00",17.7071715984043,"Approved","OW311"
"2023-05-14 05:00",17.7071728821537,"Approved","OW311"
"2023-05-14 06:00",17.7081741659032,"Approved","OW311"
"2023-05-14 07:00",17.7081754496527,"Approved","OW311"
"2023-05-14 08:00",17.7081767334022,"Approved","OW311"
"2023-05-14 09:00",17.7081780171517,"Approved","OW311"
"2023-05-14 10:00",17.7091793009012,"Approved","OW311"
"2023-05-14 11:00",17.7091805846506,"Approved","OW311"
"2023-05-14 12:00",17.7091818684001,"Approved","OW311"
"2023-05-14 13:00",17.7091831521496,"Approved","OW311"
"2023-05-14 14:00",17.7091844358991,"Approved","OW311"
"2023-05-14 15:00",17.7091857196486,"Approved","OW311"
"2023-05-14 16:00",17.709187003398,"Approved","OW311"
"2023-05-14 17:00",17.7081882871475,"Approved","OW311"
"2023-05-14 18:00",17.709189570897,"Approved","OW311"
"2023-05-14 19:00",17.7091908546465,"Approved","OW311"
"2023-05-14 20:00",17.709192138396,"Approved","OW311"
"2023-05-14 21:00",17.7091934221455,"Approved","OW311"
"2023-05-14 22:00",17.7081947058949,"Approved","OW311"
"2023-05-14 23:00",17.7091959896444,"Approved","OW311"
"2023-05-15 00:00",17.7091972733939,"Approved","OW311"
"2023-05-15 01:00",17.7091985571434,"Approved","OW311"
"2023-05-15 02:00",17.7091998408929,"Approved","OW311"
"2023-05-15 03:00",17.7092011246423,"Approved","OW311"
"2023-05-15 04:00",17.7092024083918,"Approved","OW311"
"2023-05-15 05:00",17.7082036921413,"Approved","OW311"
"2023-05-15 06:00",17.7092049758908,"Approved","OW311"
"2023-05-15 07:00",17.7082062596403,"Approved","OW311"
"2023-05-15 08:00",17.7092075433898,"Approved","OW311"
"2023-05-15 09:00",17.7092088271392,"Approved","OW311"
"2023-05-15 10:00",17.7092101108887,"Approved","OW311"
"2023-05-15 11:00",17.7102113946382,"Approved","OW311"
"2023-05-15 12:00",17.7092126783877,"Approved","OW311"
"2023-05-15 13:00",17.7092139621372,"Approved","OW311"
"2023-05-15 14:00",17.7092152458867,"Approved","OW311"
"2023-05-15 15:00",17.7092165296361,"Approved","OW311"
"2023-05-15 16:00",17.7082178133856,"Approved","OW311"
"2023-05-15 17:00",17.7082190971351,"Approved","OW311"
"2023-05-15 18:00",17.7082203808846,"Approved","OW311"
"2023-05-15 19:00",17.7082216646341,"Approved","OW311"
"2023-05-15 20:00",17.7082229483835,"Approved","OW311"
"2023-05-15 21:00",17.708224232133,"Approved","OW311"
"2023-05-15 22:00",17.7072255158825,"Approved","OW311"
"2023-05-15 23:00",17.708226799632,"Approved","OW311"
"2023-05-16 00:00",17.7072280833815,"Approved","OW311"
"2023-05-16 01:00",17.707229367131,"Approved","OW311"
"2023-05-16 02:00",17.7072306508804,"Approved","OW311"
"2023-05-16 03:00",17.7072319346299,"Approved","OW311"
"2023-05-16 04:00",17.7072332183794,"Approved","OW311"
"2023-05-16 05:00",17.7072345021289,"Approved","OW311"
"2023-05-16 06:00",17.7072357858784,"Approved","OW311"
"2023-05-16 07:00",17.7072370696278,"Approved","OW311"
"2023-05-16 08:00",17.7072383533773,"Approved","OW311"
"2023-05-16 09:00",17.7082396371268,"Approved","OW311"
"2023-05-16 10:00",17.7082409208763,"Approved","OW311"
"2023-05-16 11:00",17.7082422046258,"Approved","OW311"
"2023-05-16 12:00",17.7082434883753,"Approved","OW311"
"2023-05-16 13:00",17.7082447721247,"Approved","OW311"
"2023-05-16 14:00",17.7072460558742,"Approved","OW311"
"2023-05-16 15:00",17.7072473396237,"Approved","OW311"
"2023-05-16 16:00",17.7072486233732,"Approved","OW311"
"2023-05-16 17:00",17.7062499071227,"Approved","OW311"
"2023-05-16 18:00",17.7062511908722,"Approved","OW311"
"2023-05-16 19:00",17.7062524746216,"Approved","OW311"
"2023-05-16 20:00",17.7062537583711,"Approved","OW311"
"2023-05-16 21:00",17.7062550421206,"Approved","OW311"
"2023-05-16 22:00",17.7062563258701,"Approved","OW311"
"2023-05-16 23:00",17.7062576096196,"Approved","OW311"
"2023-05-17 00:00",17.706258893369,"Approved","OW311"
"2023-05-17 01:00",17.7052601771185,"Approved","OW311"
"2023-05-17 02:00",17.705261460868,"Approved","OW311"
"2023-05-17 03:00",17.7052627446175,"Approved","OW311"
"2023-05-17 04:00",17.705264028367,"Approved","OW311"
"2023-05-17 05:00",17.7052653121165,"Approved","OW311"
"2023-05-17 06:00",17.7052665958659,"Approved","OW311"
"2023-05-17 07:00",17.7052678796154,"Approved","OW311"
"2023-05-17 08:00",17.7052691633649,"Approved","OW311"
"2023-05-17 09:00",17.7052704471144,"Approved","OW311"
"2023-05-17 10:00",17.7062717308639,"Approved","OW311"
"2023-05-17 11:00",17.7062730146133,"Approved","OW311"
"2023-05-17 12:00",17.7062742983628,"Approved","OW311"
"2023-05-17 13:00",17.7052755821123,"Approved","OW311"
"2023-05-17 14:00",17.7052768658618,"Approved","OW311"
"2023-05-17 15:00",17.7052781496113,"Approved","OW311"
"2023-05-17 16:00",17.7042794333608,"Approved","OW311"
"2023-05-17 17:00",17.7042807171102,"Approved","OW311"
"2023-05-17 18:00",17.7032820008597,"Approved","OW311"
"2023-05-17 19:00",17.7022832846092,"Approved","OW311"
"2023-05-17 20:00",17.7022845683587,"Approved","OW311"
"2023-05-17 21:00",17.7022858521082,"Approved","OW311"
"2023-05-17 22:00",17.7012871358577,"Approved","OW311"
"2023-05-17 23:00",17.7012884196071,"Approved","OW311"
"2023-05-18 00:00",17.7012897033566,"Approved","OW311"
"2023-05-18 01:00",17.7012909871061,"Approved","OW311"
"2023-05-18 02:00",17.7012922708556,"Approved","OW311"
"2023-05-18 03:00",17.7002935546051,"Approved","OW311"
"2023-05-18 04:00",17.7012948383545,"Approved","OW311"
"2023-05-18 05:00",17.700296122104,"Approved","OW311"
"2023-05-18 06:00",17.7002974058535,"Approved","OW311"
"2023-05-18 07:00",17.700298689603,"Approved","OW311"
"2023-05-18 08:00",17.7002999733525,"Approved","OW311"
"2023-05-18 09:00",17.701301257102,"Approved","OW311"
"2023-05-18 10:00",17.7013025408514,"Approved","OW311"
"2023-05-18 11:00",17.7023038246009,"Approved","OW311"
"2023-05-18 12:00",17.7023051083504,"Approved","OW311"
"2023-05-18 13:00",17.7023063920999,"Approved","OW311"
"2023-05-18 14:00",17.7013076758494,"Approved","OW311"
"2023-05-18 15:00",17.7013089595988,"Approved","OW311"
"2023-05-18 16:00",17.7003102433483,"Approved","OW311"
"2023-05-18 17:00",17.7003115270978,"Approved","OW311"
"2023-05-18 18:00",17.7003128108473,"Approved","OW311"
"2023-05-18 19:00",17.6993140945968,"Approved","OW311"
"2023-05-18 20:00",17.6993153783463,"Approved","OW311"
"2023-05-18 21:00",17.6993166620957,"Approved","OW311"
"2023-05-18 22:00",17.6983179458452,"Approved","OW311"
"2023-05-18 23:00",17.6993192295947,"Approved","OW311"
"2023-05-19 00:00",17.6993205133442,"Approved","OW311"
"2023-05-19 01:00",17.6983217970937,"Approved","OW311"
"2023-05-19 02:00",17.6983230808432,"Approved","OW311"
"2023-05-19 03:00",17.6983243645926,"Approved","OW311"
"2023-05-19 04:00",17.6983256483421,"Approved","OW311"
"2023-05-19 05:00",17.6983269320916,"Approved","OW311"
"2023-05-19 06:00",17.6983282158411,"Approved","OW311"
"2023-05-19 07:00",17.6983294995906,"Approved","OW311"
"2023-05-19 08:00",17.69833078334,"Approved","OW311"
"2023-05-19 09:00",17.6993320670895,"Approved","OW311"
"2023-05-19 10:00",17.699333350839,"Approved","OW311"
"2023-05-19 11:00",17.6993346345885,"Approved","OW311"
"2023-05-19 12:00",17.700335918338,"Approved","OW311"
"2023-05-19 13:00",17.7003372020875,"Approved","OW311"
"2023-05-19 14:00",17.7003384858369,"Approved","OW311"
"2023-05-19 15:00",17.7003397695864,"Approved","OW311"
"2023-05-19 16:00",17.6993410533359,"Approved","OW311"
"2023-05-19 17:00",17.6993423370854,"Approved","OW311"
"2023-05-19 18:00",17.6983436208349,"Approved","OW311"
"2023-05-19 19:00",17.6983449045843,"Approved","OW311"
"2023-05-19 20:00",17.6973461883338,"Approved","OW311"
"2023-05-19 21:00",17.6973474720833,"Approved","OW311"
"2023-05-19 22:00",17.6973487558328,"Approved","OW311"
"2023-05-19 23:00",17.6973500395823,"Approved","OW311"
"2023-05-20 00:00",17.6973513233318,"Approved","OW311"
"2023-05-20 01:00",17.6973526070812,"Approved","OW311"
"2023-05-20 02:00",17.6973538908307,"Approved","OW311"
"2023-05-20 03:00",17.6963551745802,"Approved","OW311"
"2023-05-20 04:00",17.6973564583297,"Approved","OW311"
"2023-05-20 05:00",17.6963577420792,"Approved","OW311"
"2023-05-20 06:00",17.6963590258287,"Approved","OW311"
"2023-05-20 07:00",17.6963603095781,"Approved","OW311"
"2023-05-20 08:00",17.6973615933276,"Approved","OW311"
"2023-05-20 09:00",17.6973628770771,"Approved","OW311"
"2023-05-20 10:00",17.6973641608266,"Approved","OW311"
"2023-05-20 11:00",17.6973654445761,"Approved","OW311"
"2023-05-20 12:00",17.6983667283255,"Approved","OW311"
"2023-05-20 13:00",17.698368012075,"Approved","OW311"
"2023-05-20 14:00",17.6983692958245,"Approved","OW311"
"2023-05-20 15:00",17.698370579574,"Approved","OW311"
"2023-05-20 16:00",17.6973718633235,"Approved","OW311"
"2023-05-20 17:00",17.697373147073,"Approved","OW311"
"2023-05-20 18:00",17.6973744308224,"Approved","OW311"
"2023-05-20 19:00",17.6963757145719,"Approved","OW311"
"2023-05-20 20:00",17.6963769983214,"Approved","OW311"
"2023-05-20 21:00",17.6963782820709,"Approved","OW311"
"2023-05-20 22:00",17.6953795658204,"Approved","OW311"
"2023-05-20 23:00",17.6953808495698,"Approved","OW311"
"2023-05-21 00:00",17.6943821333193,"Approved","OW311"
"2023-05-21 01:00",17.6953834170688,"Approved","OW311"
"2023-05-21 02:00",17.6943847008183,"Approved","OW311"
"2023-05-21 03:00",17.6943859845678,"Approved","OW311"
"2023-05-21 04:00",17.6943872683173,"Approved","OW311"
"2023-05-21 05:00",17.6943885520667,"Approved","OW311"
"2023-05-21 06:00",17.6943898358162,"Approved","OW311"
"2023-05-21 07:00",17.6943911195657,"Approved","OW311"
"2023-05-21 08:00",17.6943924033152,"Approved","OW311"
"2023-05-21 09:00",17.6943936870647,"Approved","OW311"
"2023-05-21 10:00",17.6943949708141,"Approved","OW311"
"2023-05-21 11:00",17.6943962545636,"Approved","OW311"
"2023-05-21 12:00",17.6953975383131,"Approved","OW311"
"2023-05-21 13:00",17.6943988220626,"Approved","OW311"
"2023-05-21 14:00",17.6944001058121,"Approved","OW311"
"2023-05-21 15:00",17.6944013895616,"Approved","OW311"
"2023-05-21 16:00",17.694402673311,"Approved","OW311"
"2023-05-21 17:00",17.6934039570605,"Approved","OW311"
"2023-05-21 18:00",17.69240524081,"Approved","OW311"
"2023-05-21 19:00",17.6924065245595,"Approved","OW311"
"2023-05-21 20:00",17.691407808309,"Approved","OW311"
"2023-05-21 21:00",17.6904090920585,"Approved","OW311"
"2023-05-21 22:00",17.6904103758079,"Approved","OW311"
"2023-05-21 23:00",17.6904116595574,"Approved","OW311"
"2023-05-22 00:00",17.6894129433069,"Approved","OW311"
"2023-05-22 01:00",17.6894142270564,"Approved","OW311"
"2023-05-22 02:00",17.6894155108059,"Approved","OW311"
"2023-05-22 03:00",17.6894167945553,"Approved","OW311"
"2023-05-22 04:00",17.6884180783048,"Approved","OW311"
"2023-05-22 05:00",17.6884193620543,"Approved","OW311"
"2023-05-22 06:00",17.6874206458038,"Approved","OW311"
"2023-05-22 07:00",17.6874219295533,"Approved","OW311"
"2023-05-22 08:00",17.6874232133028,"Approved","OW311"
"2023-05-22 09:00",17.6874244970522,"Approved","OW311"
"2023-05-22 10:00",17.6874257808017,"Approved","OW311"
"2023-05-22 11:00",17.6874270645512,"Approved","OW311"
"2023-05-22 12:00",17.6874283483007,"Approved","OW311"
"2023-05-22 13:00",17.6874296320502,"Approved","OW311"
"2023-05-22 14:00",17.6874309157997,"Approved","OW311"
"2023-05-22 15:00",17.6874321995491,"Approved","OW311"
"2023-05-22 16:00",17.6874334832986,"Approved","OW311"
"2023-05-22 17:00",17.6864347670481,"Approved","OW311"
"2023-05-22 18:00",17.6864360507976,"Approved","OW311"
"2023-05-22 19:00",17.6854373345471,"Approved","OW311"
"2023-05-22 20:00",17.6854386182965,"Approved","OW311"
"2023-05-22 21:00",17.684439902046,"Approved","OW311"
"2023-05-22 22:00",17.6844411857955,"Approved","OW311"
"2023-05-22 23:00",17.684442469545,"Approved","OW311"
"2023-05-23 00:00",17.6844437532945,"Approved","OW311"
"2023-05-23 01:00",17.683445037044,"Approved","OW311"
"2023-05-23 02:00",17.6824463207934,"Approved","OW311"
"2023-05-23 03:00",17.6824476045429,"Approved","OW311"
"2023-05-23 04:00",17.6824488882924,"Approved","OW311"
"2023-05-23 05:00",17.6824501720419,"Approved","OW311"
"2023-05-23 06:00",17.6814514557914,"Approved","OW311"
"2023-05-23 07:00",17.6824527395408,"Approved","OW311"
"2023-05-23 08:00",17.6814540232903,"Approved","OW311"
"2023-05-23 09:00",17.6814553070398,"Approved","OW311"
"2023-05-23 10:00",17.6814565907893,"Approved","OW311"
"2023-05-23 11:00",17.6814578745388,"Approved","OW311"
"2023-05-23 12:00",17.6814591582883,"Approved","OW311"
"2023-05-23 13:00",17.6814604420377,"Approved","OW311"
"2023-05-23 14:00",17.6824617257872,"Approved","OW311"
"2023-05-23 15:00",17.6814630095367,"Approved","OW311"
"2023-05-23 16:00",17.6814642932862,"Approved","OW311"
"2023-05-23 17:00",17.6814655770357,"Approved","OW311"
"2023-05-23 18:00",17.6814668607852,"Approved","OW311"
"2023-05-23 19:00",17.6814681445346,"Approved","OW311"
"2023-05-23 20:00",17.6804694282841,"Approved","OW311"
"2023-05-23 21:00",17.6804707120336,"Approved","OW311"
"2023-05-23 22:00",17.6794719957831,"Approved","OW311"
"2023-05-23 23:00",17.6794732795326,"Approved","OW311"
"2023-05-24 00:00",17.679474563282,"Approved","OW311"
"2023-05-24 01:00",17.6784758470315,"Approved","OW311"
"2023-05-24 02:00",17.678477130781,"Approved","OW311"
"2023-05-24 03:00",17.6784784145305,"Approved","OW311"
"2023-05-24 04:00",17.67847969828,"Approved","OW311"
"2023-05-24 05:00",17.6774809820295,"Approved","OW311"
"2023-05-24 06:00",17.6774822657789,"Approved","OW311"
"2023-05-24 07:00",17.6774835495284,"Approved","OW311"
"2023-05-24 08:00",17.6774848332779,"Approved","OW311"
"2023-05-24 09:00",17.6774861170274,"Approved","OW311"
"2023-05-24 10:00",17.6774874007769,"Approved","OW311"
"2023-05-24 11:00",17.6774886845263,"Approved","OW311"
"2023-05-24 12:00",17.6774899682758,"Approved","OW311"
"2023-05-24 13:00",17.6774912520253,"Approved","OW311"
"2023-05-24 14:00",17.6784925357748,"Approved","OW311"
"2023-05-24 15:00",17.6774938195243,"Approved","OW311"
"2023-05-24 16:00",17.6774951032738,"Approved","OW311"
"2023-05-24 17:00",17.6774963870232,"Approved","OW311"
"2023-05-24 18:00",17.6774976707727,"Approved","OW311"
"2023-05-24 19:00",17.6764989545222,"Approved","OW311"